Regional Weather Roundup
Issued by NWS

Home | Current Version | Previous Version | Text Only | Print | Product List | Glossary On
Versions: 1 2 3 4 5 6 7 8 9 10 11 12 13 14 15 16 17 18 19 20 21 22 23 24 25 26 27 28 29 30 31 32 33 34 35 36 37 38 39 40 41 42 43 44 45 46 47 48 49 50
000
ASUS43 KBIS 280610
RWRND

NORTH DAKOTA REGIONAL WEATHER ROUNDUP
NATIONAL WEATHER SERVICE BISMARCK ND
100 AM CDT THU MAY 28 2015

NOTE: "FAIR" INDICATES FEW OR NO CLOUDS BELOW 12,000 FEET WITH NO
SIGNIFICANT WEATHER AND/OR OBSTRUCTIONS TO VISIBILITY.


NDZ001>003-009>011-017-280700-
NORTHWEST NORTH DAKOTA

CITY           SKY/WX    TMP DP  RH WIND       PRES   REMARKS
WILLISTON      CLOUDY    58  54  86 NE3       29.91S
6HR MIN TEMP:  57; 6HR MAX TEMP:  65; 6HR PCP: TRACE;

MINOT          CLOUDY    60  56  86 SE10      29.94S
MINOT AFB      DRIZZLE   59  59 100 E8        29.93F
$$

NDZ018>021-031>035-040>046-280700-
SOUTHWEST NORTH DAKOTA

CITY           SKY/WX    TMP DP  RH WIND       PRES   REMARKS
BISMARCK       CLOUDY    60  58  92 E9        29.93F
6HR MIN TEMP:  60; 6HR MAX TEMP:  77; 6HR PCP:  0.03;

DICKINSON      CLOUDY    58  54  86 S9        29.90S
GARRISON         N/A     60  57  89 E10       29.92F
6HR MIN TEMP:  60; 6HR MAX TEMP:  76; 6HR PCP:  0.27;

HETTINGER ARPT FOG       51  50  96 CALM      29.93F VSB 1
$$

NDZ004>008-012>016-024-026-027-054-280700-
NORTHEAST NORTH DAKOTA

CITY           SKY/WX    TMP DP  RH WIND       PRES   REMARKS
GRAND FORKS    CLOUDY    63  50  62 NE6       29.96F
GRND FRKS AFB  CLOUDY    61  49  64 E7        29.96F
DEVILS LAKE    CLOUDY    61  54  77 E5        29.99F
$$

NDZ022-023-025-028>030-036>039-047>053-280700-
SOUTHEAST NORTH DAKOTA

CITY           SKY/WX    TMP DP  RH WIND       PRES   REMARKS
FARGO          MOCLDY    65  55  70 E9        29.95F
6HR MIN TEMP:  65; 6HR MAX TEMP:  80;

JAMESTOWN      CLOUDY    62  56  80 CALM      29.97S
$$



USA.gov is the U.S. government's official web portal to all federal, state and local government web resources and services.